Atlantic City, NJ

2:29 AM EST on November 21, 2017 (GMT -0500)
Atlantic City International

Weather History for KACY - July, 2013

Change the Weather History Date:

Saturday, July 27, 2013

  Actual Average Record
Temperature  
Mean Temperature 71 °F 76 °F  
Max Temperature 82 °F 86 °F 99 °F (2005)
Min Temperature 60 °F 67 °F 54 °F (1975)
Degree Days  
Heating Degree Days 0 0  
Month to date heating degree days 0 0  
Since 1 June heating degree days 8 27  
Since 1 July heating degree days 0 0  
Cooling Degree Days 6 11  
Month to date cooling degree days 398 302  
Year to date cooling degree days 703 569  
Since 1 June cooling degree days 609 505  
Growing Degree Days 21 (Base 50)    
Moisture  
Dew Point 64 °F    
Average Humidity 74    
Maximum Humidity 100    
Minimum Humidity 47    
Precipitation  
Precipitation 0.00 in 0.13 in 3.63 in (1958)
Month to date precipitation 3.00 3.22  
Year to date precipitation 28.09 23.61  
Snow  
Snow 0.00 in 0.00 in 0.00 in ()
Month to date snowfall 0.0 0.0  
Since 1 June snowfall 0.0 0.0  
Since 1 July snowfall 0.0 0.0  
Snow Depth 0.00 in    
Sea Level Pressure  
Sea Level Pressure 30.04 in    
Wind  
Wind Speed 5 mph (South)    
Max Wind Speed 13 mph    
Max Gust Speed 18 mph    
Visibility 10 miles    
Events      
T = Trace of Precipitation, MM = Missing Value Source: NWS Daily Summary

Daily Weather History Graph

Daily Weather History Graph

Search for Another Location

Airport or City:

Trip Planner

Search our weather history database for the weather conditions in past years. The results will help you decide how hot, cold, wet, or windy it might be!

Date:

Astronomy

Jul. 27, 2013 Rise Set
Actual Time 5:53 AM EDT 8:15 PM EDT
Civil Twilight 5:23 AM EDT 8:45 PM EDT
Nautical Twilight 4:45 AM EDT 9:23 PM EDT
Astronomical Twilight 4:04 AM EDT 10:04 PM EDT
Moon 11:03 PM EDT (7/27) 11:29 AM EDT (7/27)
Length of Visible Light 15h 22m
Length of Day
14h 21m
Waning Gibbous, 71% of the Moon is Illuminated
Jul 27
Waning Gibbous
Jul 29
Last Quarter
Aug 6
New
Aug 14
First Quarter
Aug 20
Full

Hourly Weather History & Observations

Time (EDT) Temp. Heat Index Dew Point Humidity Pressure Visibility Wind Dir Wind Speed Gust Speed Precip Events Conditions
12:54 AM 66.9 °F - 64.0 °F 90% 30.09 in 10.0 mi South 3.5 mph - N/A   Clear
1:54 AM 66.0 °F - 63.0 °F 90% 30.08 in 10.0 mi SSW 3.5 mph - N/A   Clear
2:54 AM 66.0 °F - 63.0 °F 90% 30.07 in 10.0 mi South 4.6 mph - N/A   Clear
3:54 AM 62.1 °F - 61.0 °F 96% 30.07 in 8.0 mi Calm Calm - N/A   Partly Cloudy
4:54 AM 64.9 °F - 64.0 °F 97% 30.06 in 7.0 mi Calm Calm - N/A   Clear
5:54 AM 62.1 °F - 60.1 °F 93% 30.06 in 7.0 mi Calm Calm - N/A   Clear
6:54 AM 66.9 °F - 66.0 °F 97% 30.06 in 6.0 mi Calm Calm - N/A   Partly Cloudy
7:54 AM 70.0 °F - 66.9 °F 90% 30.07 in 10.0 mi SSW 3.5 mph - N/A   Clear
8:54 AM 73.0 °F - 66.9 °F 81% 30.08 in 10.0 mi SSW 5.8 mph - N/A   Mostly Cloudy
9:54 AM 75.9 °F - 64.9 °F 69% 30.08 in 10.0 mi South 5.8 mph - N/A   Overcast
10:54 AM 78.1 °F - 64.0 °F 62% 30.08 in 10.0 mi South 9.2 mph - N/A   Mostly Cloudy
11:54 AM 78.1 °F - 63.0 °F 60% 30.08 in 10.0 mi South 8.1 mph - N/A   Mostly Cloudy
12:54 PM 82.0 °F 83.0 °F 62.1 °F 51% 30.06 in 10.0 mi South 8.1 mph - N/A   Partly Cloudy
1:54 PM 80.1 °F 81.9 °F 64.9 °F 60% 30.05 in 10.0 mi SSE 6.9 mph - N/A   Scattered Clouds
2:54 PM 81.0 °F 81.9 °F 62.1 °F 52% 30.03 in 10.0 mi South 10.4 mph - N/A   Clear
3:54 PM 82.0 °F 82.7 °F 61.0 °F 49% 30.01 in 10.0 mi SE 9.2 mph - N/A   Clear
4:54 PM 79.0 °F - 61.0 °F 54% 29.99 in 10.0 mi SSE 9.2 mph - N/A   Clear
5:54 PM 77.0 °F - 63.0 °F 62% 29.99 in 10.0 mi SE 6.9 mph - N/A   Clear
6:54 PM 75.9 °F - 64.0 °F 67% 29.99 in 10.0 mi SE 11.5 mph - N/A   Clear
7:54 PM 73.0 °F - 66.9 °F 81% 30.00 in 10.0 mi SSE 6.9 mph - N/A   Clear
8:54 PM 72.0 °F - 68.0 °F 87% 30.01 in 10.0 mi South 5.8 mph - N/A   Clear
9:54 PM 71.1 °F - 68.0 °F 90% 30.00 in 10.0 mi Calm Calm - N/A   Clear
10:54 PM 66.0 °F - 64.9 °F 96% 29.99 in 10.0 mi SE 3.5 mph - N/A   Clear
11:54 PM 64.9 °F - 64.0 °F 97% 29.98 in 10.0 mi Calm Calm - N/A   Clear